• MPC Preparation (Info)

  • MPEC 2019-T156 : S/2004 S 34

    The following Minor Planet Electronic Circular may be linked-to from your own Web pages, but must not otherwise be redistributed electronically.

    A form allowing access to any MPEC is at the bottom of this page.


    Read MPEC 2019-T155 Read MPEC 2019-T157


    M.P.E.C. 2019-T156                              Issued 2019 October 8, 17:02 UT
    
         The Minor Planet Electronic Circulars contain information on unusual
             minor planets and routine data on comets.  They are published
        on behalf of Division F of the International Astronomical Union by the
              Minor Planet Center, Smithsonian Astrophysical Observatory,
                              Cambridge, MA 02138, U.S.A.
    
                 Prepared using the Tamkin Foundation Computer Network
    
                                  MPC@CFA.HARVARD.EDU
                URL https://www.minorplanetcenter.net/    ISSN 1523-6714
    
                                   S/2004 S 34                               
    
    
    Observations:
        SK04S340* C2004 12 12.46294 07 56 25.926+20 54 05.81         25.7 RcET156568
        SK04S340  C2004 12 12.48103 07 56 25.630+20 54 06.90         25.8 RcET156568
        SK04S340  C2004 12 13.49872 07 56 10.259+20 54 53.74         25.6 RcET156568
        SK04S340  C2004 12 13.51926 07 56 09.948+20 54 54.86         25.7 RcET156568
        SK04S340  C2004 12 14.60516 07 55 53.051+20 55 45.90         25.3 RcET156568
        SK04S340  C2004 12 14.62939 07 55 52.669+20 55 47.01         25.2 RcET156568
        SK04S340  C2005 01 05.59417 07 49 03.801+21 15 30.71         24.6 RcET156568
        SK04S340  C2005 01 05.61650 07 49 03.303+21 15 32.04         24.5 RcET156568
        SK04S340  C2006 01 05.52950 08 44 52.851+18 32 58.75         25.7 RVET156568
        SK04S340  C2006 01 05.55392 08 44 52.408+18 33 00.62         25.5 RVET156568
        SK04S340  C2006 01 05.57523 08 44 52.031+18 33 02.42         24.5 RVET156568
        SK04S340  C2006 01 06.51624 08 44 35.326+18 34 11.90         25.5 RVET156568
        SK04S340  C2006 01 06.52847 08 44 35.097+18 34 12.96         25.8 RVET156568
        SK04S340  C2006 02 01.32024 08 36 06.582+19 07 46.41         25.3 RcET156568
        SK04S340  C2006 02 01.34459 08 36 06.093+19 07 48.59               cET156568
        SK04S340  C2006 02 02.28374 08 35 47.071+19 09 00.97               cET156568
        SK04S340  C2006 02 02.30664 08 35 46.594+19 09 03.04               cET156568
        SK04S340  C2007 01 16.38652 09 41 30.995+14 54 20.01         25.5 RcET156568
        SK04S340  C2007 01 16.40457 09 41 30.731+14 54 21.91         25.5 RcET156568
        SK04S340  C2007 01 16.41909 09 41 30.516+14 54 22.46         25.5 RcET156568
        SK04S340  C2007 01 17.38756 09 41 16.067+14 55 46.71         25.8 RcET156568
        SK04S340  C2007 01 17.40203 09 41 15.837+14 55 47.95               cET156568
        SK04S340  C2007 01 17.41651 09 41 15.607+14 55 49.07               cET156568
        SK04S340  C2007 03 21.23181 09 24 20.751+16 26 24.85         25.6 RVET156568
        SK04S340  C2007 03 21.24231 09 24 20.640+16 26 25.09         25.5 RVET156568
        SK04S340  C2007 03 21.25280 09 24 20.497+16 26 26.30         25.5 RVET156568
        SK04S340  C2007 03 21.26328 09 24 20.416+16 26 26.31         25.5 RVET156568
        SK04S340  C2007 03 21.27734 09 24 20.249+16 26 27.65         25.5 RVET156568
        SK04S340  C2007 03 21.28786 09 24 20.129+16 26 27.53         25.5 RVET156568
    
    Observer details:
    568 Mauna Kea.  Observers S. S. Sheppard, D. C. Jewitt, J. Kleyna.  Measurer S. 
       S. Sheppard.  8.2-m reflector + CCD.
    
    Orbital elements:
    S/2004 S 34
    Epoch 2019 Apr. 27.0 TT = JDT 2458600.5                 Williams
    M   3.38926              (2000.0)            P               Q
    n   0.25457070     Peri.   22.35061     +0.34053798     -0.92284245
    a   0.1624282      Node   311.75042     -0.89502156     -0.37681457
    e   0.2352281      Incl.  166.03944     -0.28804565     +0.07982853
    P   3.87           H   16.1           P/d  1414.15
    From 29 observations 2004 Dec. 12-2007 Mar. 21, mean residual 0".30.
    
    Residuals in seconds of arc
    041212 568  0.2-  0.0     060105 568  0.5-  0.1-    070117 568  0.0   0.3-
    041212 568  0.5-  0.3+    060106 568  0.0   0.3+    070117 568  0.2-  0.4-
    041213 568  0.2+  0.0     060106 568  0.1-  0.4+    070117 568  0.3-  0.5-
    041213 568  0.4+  0.2+    060201 568  0.3+  0.1-    070321 568  0.2+  0.3+
    041214 568  0.2+  0.0     060201 568  0.5+  0.2+    070321 568  0.2+  0.0
    041214 568  0.3+  0.0     060202 568  0.4+  0.0     070321 568  0.2-  0.6+
    050105 568  0.2+  0.0     060202 568  0.3+  0.2+    070321 568  0.3+  0.1+
    050105 568  0.2-  0.1+    070116 568  0.3-  0.1+    070321 568  0.2+  0.6+
    060105 568  0.6-  0.4-    070116 568  0.2-  0.5+    070321 568  0.1+  0.1-
    060105 568  0.7-  0.3-    070116 568  0.1-  0.3-
    
    
    A. U. Tomatic                (C) Copyright 2019 MPC           M.P.E.C. 2019-T156
    


    Read MPEC 2019-T155 Read MPEC 2019-T157


    MPEC number:

    Enter an MPEC number in one of the following forms:

    • 1997-B01 (the full form)
    • J97B01 (the packed version of the full form)
    • B01 (the abbreviated form)